Flag for U.S.A. Weather past 2 weeks in Simi Valley, California, U.S.A.

Now
47 °F

Clear.


Feels Like: 42 °F
Forecast: 38 / 58 °F
Wind: 9 mph from North

Location: Van Nuys Airport

Current Time: Dec 26, 2014 at 4:20:19 AM

Latest Report: Dec 26, 2014 at 3:51 AM


Visibility: 10 mi

Pressure: 29.98 "Hg

Humidity: 33%

Dew point: 19 °F

Location of Simi ValleyLocation

Historic Weather in Simi Valley — Graph

°F

Simi Valley temperature yesterday

Maximum temperature yesterday: 60 °F (at 1:51 PM)
Minimum temperature yesterday: 48 °F (at 9:51 PM)
Average temperature yesterday: 54 °F

Past Weeks' High & Low Weather Summary

 TemperatureHumidityPressure
High80 °F (Dec 22, 1:51 PM)93% (Dec 11, 10:51 PM)30.23 "Hg (Dec 11, 10:51 PM)
Low41 °F (Dec 14, 6:51 AM)19% (Dec 25, 3:51 PM)29.78 "Hg (Dec 25, 1:51 AM)
Average57 °F65%30.03 "Hg
* Reported Dec 11 2:01 AM — Dec 26 2:51 AM, Simi Valley, Weather by CustomWeather, © 2014

Note: Actual official high and low records may vary slightly from our data, if they occured in-between our weather recording intervals... More about our weather records

Advertising

Simi Valley weather history for previous 24 hours

 ConditionsComfort  
Time TempWeatherWind HumidityBarometerVisibility
2:51 AM
Dec 26
48 °FClear.9 mph33%29.97 "Hg10 mi
1:51 AM48 °FClear.15 mph36%29.95 "Hg10 mi
12:51 AM49 °FClear.14 mph36%29.95 "Hg10 mi
11:51 PM
Dec 25
49 °FClear.17 mph35%29.93 "Hg10 mi
10:51 PM49 °FClear.14 mph38%29.95 "Hg10 mi
9:51 PM48 °FClear.9 mph44%29.95 "Hg10 mi
8:51 PM49 °FClear.10 mph44%29.93 "Hg10 mi
7:51 PM50 °FClear.9 mph41%29.94 "Hg10 mi
6:51 PM51 °FClear.No wind31%29.92 "Hg10 mi
5:51 PM53 °FClear.29 mph26%29.86 "Hg10 mi
4:51 PM55 °FClear.14 mph21%29.86 "Hg10 mi
3:51 PM58 °FSunny.14 mph19%29.85 "Hg10 mi
2:51 PM59 °FSunny.20 mph22%29.84 "Hg10 mi
1:51 PM60 °FSunny.22 mph20%29.83 "Hg10 mi
12:51 PM59 °FSunny.21 mph27%29.85 "Hg10 mi
11:51 AM58 °FSunny.24 mph30%29.86 "Hg10 mi
10:51 AM58 °FSunny.25 mph31%29.90 "Hg10 mi
9:51 AM56 °FSunny.14 mph34%29.91 "Hg10 mi
8:51 AM53 °FSunny.21 mph34%29.89 "Hg10 mi
7:51 AM50 °FSunny.20 mph39%29.87 "Hg10 mi
6:51 AM51 °FPassing clouds.10 mph41%29.84 "Hg10 mi
5:51 AM52 °FClear.22 mph35%29.81 "Hg10 mi
4:51 AM52 °FClear.28 mph41%29.80 "Hg10 mi
Weather by CustomWeather, © 2014

See weather overviewHow to use our weather pages